This is the latest recevied weather packets stored in our database for station/object RN1M-13. If no packets are shown the sender has not sent any weather packets the latest 10 day(s).
| Time | Temp. | Humidity | Pressure | Rain* | Wind** | Luminosity | Snow |
|---|---|---|---|---|---|---|---|
| 1777681066 | 10° C | 100% | 1012.5 hPa | - | - | - | - |
| 1777680163 | 10.56° C | 100% | 1012.7 hPa | - | - | - | - |
| 1777679266 | 10.56° C | 100% | 1012.9 hPa | - | - | - | - |
| 1777678363 | 11.11° C | 100% | 1013 hPa | - | - | - | - |
| 1777677466 | 11.11° C | 100% | 1013 hPa | - | - | - | - |
| 1777676564 | 11.11° C | 100% | 1013.1 hPa | - | - | - | - |
| 1777675666 | 11.11° C | 100% | 1013.2 hPa | - | - | - | - |
| 1777674767 | 11.67° C | 100% | 1013.3 hPa | - | - | - | - |
| 1777673867 | 11.67° C | 100% | 1013.2 hPa | - | - | - | - |
| 1777672966 | 11.67° C | 100% | 1013.3 hPa | - | - | - | - |
| 1777672066 | 11.67° C | 100% | 1013.3 hPa | - | - | - | - |
| 1777671166 | 12.22° C | 100% | 1013.6 hPa | - | - | - | - |
| 1777670266 | 12.22° C | 100% | 1013.6 hPa | - | - | - | - |
| 1777669366 | 12.22° C | 100% | 1013.6 hPa | - | - | - | - |
| 1777668466 | 11.67° C | 100% | 1013.4 hPa | - | - | - | - |
| 1777667566 | 11.67° C | 100% | 1013.4 hPa | - | - | - | - |
| 1777666666 | 11.11° C | 100% | 1013.5 hPa | - | - | - | - |
| 1777665768 | 11.11° C | 100% | 1013.6 hPa | - | - | - | - |
| 1777664872 | 11.11° C | 100% | 1013.7 hPa | - | - | - | - |
| 1777663972 | 11.11° C | 100% | 1013.8 hPa | - | - | - | - |
| 1777663072 | 10.56° C | 100% | 1014 hPa | - | - | - | - |
| 1777662172 | 10.56° C | 100% | 1014.1 hPa | - | - | - | - |
| 1777661272 | 11.11° C | 100% | 1014.4 hPa | - | - | - | - |
| 1777660372 | 11.11° C | 100% | 1014.7 hPa | - | - | - | - |
| 1777659472 | 11.67° C | 100% | 1014.7 hPa | - | - | - | - |
* Rain since midnight (hover to see other rain measurements)
** Current wind speed in m/s (hover to see current wind gust speed)